Temperature
17 17 17 17 17 17 16 16 16 16 16 16 16 16 16 16 16 16 16 16 16 16 16 15 15 15 15 15 15 15 15 15 14 14 14 14 14 14
17 17 17 17 17 17 16 16 16 16 16 16 16 16 16 16 16 16 16 16 16 16 15 15 15 15 15 15 15 15 15 14 14 14 14 14 14 14
17 17 17 17 17 16 16 16 16 16 16 16 16 16 16 16 16 16 16 16 16 16 15 15 15 15 15 15 15 15 14 14 14 14 14 14 14 13
16 16 16 16 16 16 16 16 16 16 16 16 16 16 16 16 16 16 16 15 15 15 15 15 15 15 15 15 15 14 14 14 14 14 14 13 13 13
16 16 16 16 16 16 16 16 16 16 16 16 16 16 16 16 16 16 16 15 15 15 15 15 15 15 15 15 15 14 14 14 14 14 14 13 13 13
16 16 16 16 16 16 16 16 16 16 16 16 15 16 16 16 15 15 15 15 15 15 15 15 15 15 15 15 15 14 14 14 14 14 14 13 13 13
16 16 16 16 16 16 16 16 16 16 15 15 15 15 15 15 15 15 15 15 15 15 15 15 15 15 15 15 14 14 14 14 14 14 14 14 13 13
16 16 16 16 16 16 16 16 16 15 15 15 15 15 15 15 15 15 15 15 14 15 15 15 15 15 15 14 14 14 14 14 14 14 14 14 13 13
16 16 16 16 16 16 16 15 15 15 15 15 15 15 15 15 15 15 15 14 15 15 14 14 14 14 14 14 14 14 14 14 14 14 14 14 13 13
16 16 16 16 16 16 15 15 15 15 15 15 15 15 15 15 15 14 14 14 14 14 14 14 14 14 14 14 14 14 14 14 14 14 13 13 13 13
16 16 16 16 15 15 15 15 15 15 15 15 15 15 15 14 14 14 14 14 14 14 14 14 14 14 14 14 14 14 14 13 13 13 13 13 13 12
16 15 15 15 15 15 15 15 15 15 15 15 15 15 15 14 14 14 14 14 14 14 14 14 14 13 13 14 14 14 13 13 13 13 13 13 12 12
15 15 15 15 15 15 15 15 15 15 14 14 14 14 14 14 14 14 14 14 14 13 14 13 13 13 13 13 13 13 13 13 13 13 13 12 12 12
15 15 15 14 14 14 14 14 14 14 14 14 14 14 14 14 14 14 14 14 13 13 13 13 13 13 13 12 12 13 13 13 12 12 12 12 12 12
15 15 14 14 14 14 14 14 14 14 14 14 14 14 14 14 14 13 13 13 13 13 13 13 13 13 12 12 12 12 12 12 12 12 12 12 12 11
14 14 14 14 14 14 14 14 14 13 13 13 13 13 13 13 13 13 13 13 13 13 13 13 12 12 12 12 12 12 12 12 12 12 12 11 11 11
14 14 13 13 14 14 13 13 13 13 13 13 13 13 13 13 13 13 13 13 13 13 12 12 12 12 12 12 12 12 12 12 11 11 11 11 11 11
13 13 13 13 13 13 13 13 13 13 13 13 13 13 13 12 12 12 12 12 12 12 12 12 12 12 11 11 11 11 11 11 11 11 11 11 11 11
13 13 13 13 13 13 13 13 13 13 13 13 13 12 12 12 12 12 12 12 12 12 12 11 11 11 11 11 11 11 11 11 11 11 11 10 10 11
13 13 12 12 12 12 13 13 12 12 12 12 12 12 12 12 12 12 11 11 11 11 11 11 11 11 10 10 10 10 11 10 10 10 10 10 10 10
12 12 12 12 12 12 12 12 12 12 12 12 12 12 12 12 11 11 11 11 11 11 11 11 11 10 10 10 10 10 10 10 10 10 10 10 10 10
11 11 11 11 11 11 12 12 12 12 12 11 11 11 11 11 11 11 11 11 11 10 10 10 10 10 10 10 9 9 10 10 10 10 9 9 9 9
11 11 11 11 11 11 11 11 11 11 11 11 11 11 11 11 11 10 10 10 10 10 10 10 10 10 10 9 9 9 9 9 9 9 9 9 9 9
Wind_Speed
2 2 2 1 2 2 2 3 3 2 3 3 2 3 4 4 5 5 6 7 8 8 8 8 8 8 7 7 7 7 7 6 6 6 5 6 6 6
2 2 1 1 2 2 2 2 2 3 3 2 3 2 3 3 5 5 6 7 8 9 9 9 8 8 8 8 8 8 8 7 7 7 6 6 6 6
2 2 2 2 2 2 2 2 2 2 3 2 2 2 3 3 3 4 5 6 6 9 10 10 9 9 9 9 9 9 9 8 8 7 7 7 6 6
3 3 3 2 3 2 2 3 3 3 3 3 2 2 3 3 3 3 4 5 6 8 10 10 10 10 10 10 10 10 10 9 9 8 8 7 7 7
5 5 4 3 3 3 3 3 3 3 3 3 2 2 2 2 2 2 3 3 4 6 8 9 10 11 11 11 11 11 11 10 10 10 9 9 8 8
5 5 5 5 5 4 4 4 3 3 2 2 2 2 2 1 2 2 2 2 3 3 4 6 8 10 11 12 12 12 12 12 11 11 11 10 10 9
4 5 5 6 6 5 4 4 4 3 3 2 2 2 2 2 3 3 3 2 3 3 3 4 4 5 7 9 11 12 13 13 12 12 12 12 12 11
5 5 5 6 6 6 5 5 6 5 5 4 3 3 4 4 3 3 3 2 3 2 3 4 3 4 5 6 9 11 12 13 13 13 13 13 13 12
6 5 5 5 5 4 4 4 5 6 7 5 5 5 5 5 4 4 4 5 5 3 3 3 3 4 5 6 9 11 11 12 12 13 13 13 13 13
6 6 6 5 5 5 4 3 4 4 5 5 6 6 6 5 5 5 5 4 3 3 4 4 3 4 4 5 7 10 10 11 11 11 11 12 13 13
6 6 6 6 7 7 5 5 4 4 5 6 7 6 6 6 5 3 3 3 4 4 4 4 3 3 3 3 5 7 8 8 9 10 11 11 12 11
5 5 7 8 8 7 6 5 6 5 4 3 3 4 4 5 6 6 5 5 4 4 4 4 3 2 2 2 2 3 4 6 7 8 9 11 11 8
5 5 5 7 8 8 7 6 8 6 4 4 3 3 3 3 4 5 6 6 6 6 4 5 3 3 3 2 2 2 3 3 3 4 7 9 10 9
6 5 5 6 7 7 6 7 7 4 3 3 3 4 4 4 4 5 6 8 7 7 6 6 4 4 4 3 3 2 2 3 3 3 4 5 7 10
5 6 6 6 6 5 6 6 4 3 3 4 5 5 5 5 4 3 4 4 5 6 6 7 6 5 5 4 4 3 3 3 4 4 4 4 4 5
4 4 4 5 4 4 3 3 3 4 4 5 5 5 4 4 4 3 3 3 3 4 4 6 7 6 5 5 5 4 4 3 3 4 4 4 4 6
3 1 2 2 2 3 3 3 3 3 4 4 4 4 4 4 4 3 3 3 4 4 3 2 2 4 5 4 4 5 5 4 4 4 4 4 5 6
3 3 3 4 4 5 4 4 4 4 4 4 4 5 5 5 4 4 3 4 5 5 4 3 2 2 2 3 5 6 5 5 4 4 4 5 5 5
3 4 4 5 5 5 5 4 4 4 3 4 4 5 5 5 4 4 4 4 5 5 4 3 4 4 5 5 4 6 6 4 4 4 5 5 6 5
2 4 4 4 5 5 5 4 4 3 3 4 4 5 5 4 4 5 4 5 5 4 4 4 4 5 6 6 4 3 6 5 4 5 4 4 4 4
3 3 4 4 4 4 4 4 4 4 4 4 4 4 4 4 4 5 4 5 5 4 5 5 5 5 3 2 2 3 3 5 6 5 4 4 4 4
3 4 4 4 4 4 3 3 3 3 3 4 4 4 4 4 4 5 4 4 4 4 5 4 3 3 4 5 5 5 4 3 4 6 6 5 4 5
3 4 4 4 4 3 3 4 4 4 3 3 4 4 4 4 4 4 4 4 4 4 4 4 3 3 4 5 5 5 4 3 3 3 4 6 8 8
Wind_Direction
182 184 202 209 191 195 185 181 180 209 245 246 236 228 220 221 221 217 221 226 223 222 221 221 221 221 221 223 226 227 225 225 227 226 221 223 222 220
177 177 202 220 201 200 196 199 199 197 229 239 235 236 223 229 219 222 231 232 232 230 225 220 219 219 222 222 225 226 225 224 224 223 223 222 221 220
190 191 221 214 209 209 203 202 202 193 224 261 255 245 219 229 231 230 237 236 241 234 227 225 225 225 226 227 227 227 224 223 222 223 225 226 226 222
214 211 232 222 215 212 208 213 211 204 207 242 255 237 236 233 231 232 242 242 242 240 232 229 230 230 231 230 228 226 224 222 222 225 226 227 225 224
216 218 227 218 226 219 213 213 214 208 203 218 247 242 249 243 233 242 244 251 252 249 239 235 234 233 232 232 231 228 227 226 227 227 227 227 227 223
221 224 226 219 221 217 217 214 207 199 195 207 238 250 251 244 216 236 253 249 253 257 247 242 239 237 235 233 232 231 230 229 227 228 229 229 227 224
233 233 234 229 224 216 218 209 202 202 198 205 223 230 234 223 221 215 235 251 254 239 245 250 242 240 239 237 234 232 232 231 230 228 228 227 225 223
236 242 241 232 228 225 222 206 197 198 202 202 215 228 237 232 221 215 219 230 256 220 225 256 236 243 246 240 237 234 232 231 231 229 229 225 221 222
235 234 237 233 215 216 218 214 215 219 208 203 218 229 231 226 213 221 221 227 238 219 205 249 243 254 255 248 241 233 231 231 231 231 226 221 219 220
236 229 226 231 220 203 203 218 231 232 222 217 226 235 240 231 218 220 225 237 258 234 205 237 241 252 264 256 247 233 230 230 229 227 226 222 219 218
244 234 225 227 227 203 199 221 242 256 250 236 235 244 246 237 215 203 208 224 255 246 208 223 240 253 262 257 250 237 232 231 228 224 223 221 219 215
255 245 231 229 229 210 210 218 237 249 249 262 259 259 250 238 213 209 214 224 247 252 210 204 221 216 253 253 249 236 226 227 225 226 222 218 211 203
248 248 243 233 232 225 218 223 233 236 239 244 256 264 264 252 237 227 221 221 231 245 215 193 207 209 226 251 261 240 223 221 218 224 217 213 205 195
244 247 246 237 234 233 229 235 236 230 235 241 252 261 264 263 260 251 236 235 238 244 224 201 210 206 210 234 249 242 232 222 215 221 222 207 207 208
247 242 245 249 248 242 238 237 230 225 228 241 251 259 260 262 266 269 260 246 253 257 238 219 219 213 212 227 235 235 240 236 217 216 217 210 206 203
250 250 247 246 240 239 244 234 226 224 226 240 254 262 266 264 260 259 264 258 262 268 255 230 218 211 222 226 224 235 233 228 219 218 216 217 213 210
225 238 247 246 249 249 248 244 235 227 231 239 245 258 262 260 265 260 257 253 250 257 267 262 221 217 221 211 220 230 235 236 229 214 209 223 228 223
197 230 241 244 247 249 249 251 244 240 241 241 243 248 255 257 264 264 253 249 251 253 248 239 213 209 231 245 223 229 235 239 233 213 212 225 241 234
208 243 247 247 249 251 251 252 257 256 249 245 249 254 257 259 259 257 253 252 252 253 250 236 219 213 233 254 248 215 223 230 226 228 227 226 239 242
238 249 256 256 253 252 254 258 261 261 253 250 252 254 254 255 259 260 252 250 253 258 256 243 230 227 234 245 251 243 216 217 220 232 237 240 246 248
254 258 260 261 261 256 253 253 254 254 254 252 257 257 254 252 255 257 255 250 249 255 253 251 245 228 230 226 239 254 244 220 215 219 220 229 244 243
276 273 272 270 265 264 262 258 260 259 256 254 259 262 257 247 248 253 253 252 248 252 261 266 247 206 208 219 234 247 254 248 230 225 219 219 226 232
292 293 290 283 275 271 266 263 261 264 261 257 256 253 252 255 256 251 250 248 249 256 265 269 253 225 223 225 233 243 249 250 247 243 254 254 242 245
Height
1525 1525 1526 1526 1527 1527 1528 1528 1529 1527 1527 1527 1528 1528 1528 1529 1529 1529 1529 1530 1530 1530 1531 1531 1532 1532 1533 1534 1534 1534 1534 1534 1534 1535 1535 1535 1535 1535
1523 1523 1524 1524 1525 1525 1525 1526 1526 1526 1525 1525 1526 1526 1526 1526 1527 1527 1528 1528 1528 1528 1528 1529 1529 1530 1530 1530 1531 1531 1531 1531 1531 1532 1532 1532 1532 1532
1520 1521 1521 1522 1522 1522 1523 1523 1523 1524 1523 1523 1524 1524 1524 1524 1524 1525 1525 1525 1525 1526 1526 1526 1526 1527 1527 1527 1528 1528 1528 1528 1528 1528 1528 1528 1528 1528
1518 1519 1519 1519 1520 1520 1520 1520 1521 1521 1521 1521 1521 1521 1521 1521 1522 1522 1522 1522 1523 1523 1523 1523 1523 1524 1524 1524 1525 1525 1525 1525 1525 1525 1525 1525 1525 1525
1516 1516 1517 1517 1517 1517 1517 1518 1518 1518 1518 1518 1518 1518 1518 1518 1518 1519 1519 1519 1519 1520 1520 1520 1520 1520 1521 1521 1521 1521 1522 1522 1522 1521 1521 1521 1521 1521
1513 1513 1514 1514 1514 1515 1515 1515 1515 1515 1515 1515 1515 1515 1515 1515 1515 1515 1516 1516 1516 1517 1517 1517 1517 1517 1517 1517 1517 1518 1518 1518 1518 1518 1518 1518 1517 1518
1510 1510 1511 1511 1511 1512 1512 1512 1512 1512 1512 1511 1511 1511 1511 1511 1511 1512 1512 1512 1513 1513 1513 1513 1513 1513 1513 1513 1513 1513 1514 1514 1514 1514 1514 1513 1514 1514
1507 1507 1507 1507 1508 1508 1508 1508 1508 1508 1508 1508 1508 1508 1508 1508 1508 1508 1508 1508 1508 1509 1509 1509 1509 1508 1508 1509 1509 1509 1509 1510 1509 1509 1509 1509 1509 1510
1503 1503 1503 1504 1504 1504 1504 1504 1505 1505 1505 1505 1505 1504 1504 1505 1505 1505 1505 1505 1504 1505 1505 1504 1504 1504 1504 1504 1505 1505 1505 1505 1505 1505 1505 1505 1505 1505
1499 1499 1500 1500 1500 1500 1500 1500 1500 1500 1501 1501 1501 1500 1500 1500 1500 1501 1501 1501 1501 1500 1500 1500 1499 1500 1500 1500 1500 1500 1500 1500 1500 1500 1500 1500 1500 1501
1495 1495 1496 1496 1496 1496 1497 1496 1496 1496 1497 1496 1496 1496 1496 1496 1496 1496 1496 1496 1495 1495 1496 1495 1495 1495 1495 1495 1495 1495 1495 1495 1495 1495 1495 1495 1496 1497
1491 1491 1491 1492 1492 1492 1492 1492 1492 1492 1492 1492 1492 1492 1492 1491 1491 1492 1492 1492 1491 1490 1490 1490 1490 1490 1489 1489 1490 1490 1490 1490 1490 1490 1490 1491 1492 1492
1486 1486 1486 1487 1487 1488 1488 1488 1488 1488 1488 1487 1487 1487 1486 1486 1486 1487 1487 1487 1486 1485 1486 1486 1485 1485 1485 1485 1485 1485 1485 1485 1486 1486 1486 1486 1487 1488
1481 1482 1482 1482 1483 1483 1483 1483 1484 1484 1483 1482 1482 1481 1481 1481 1482 1482 1482 1481 1481 1481 1480 1480 1480 1480 1480 1480 1480 1480 1481 1481 1481 1481 1481 1482 1483 1483
1477 1477 1477 1478 1478 1478 1478 1478 1478 1478 1478 1477 1477 1477 1477 1477 1477 1476 1476 1476 1475 1475 1474 1474 1475 1475 1475 1474 1474 1475 1475 1476 1476 1476 1476 1477 1477 1478
1472 1472 1472 1473 1473 1473 1473 1473 1473 1473 1473 1473 1473 1473 1473 1472 1472 1471 1470 1470 1469 1469 1469 1469 1469 1470 1469 1469 1470 1469 1470 1470 1471 1471 1471 1472 1472 1473
1467 1467 1467 1467 1467 1467 1467 1467 1468 1468 1468 1468 1468 1468 1468 1467 1467 1467 1466 1465 1464 1463 1463 1463 1464 1464 1464 1464 1464 1464 1465 1465 1466 1466 1466 1466 1467 1468
1462 1461 1461 1462 1462 1462 1462 1462 1462 1462 1463 1463 1463 1463 1462 1462 1462 1461 1461 1460 1459 1458 1458 1458 1458 1458 1459 1458 1460 1459 1460 1460 1460 1461 1461 1461 1461 1463
1457 1456 1457 1457 1457 1457 1457 1457 1457 1457 1458 1457 1457 1457 1457 1457 1456 1456 1455 1455 1454 1454 1454 1454 1454 1454 1453 1453 1453 1455 1454 1454 1455 1455 1456 1456 1456 1458
1453 1452 1453 1453 1453 1453 1453 1453 1452 1452 1452 1452 1452 1452 1452 1451 1451 1450 1450 1449 1449 1449 1449 1449 1449 1449 1449 1449 1449 1449 1450 1450 1450 1450 1450 1451 1451 1452
1449 1449 1449 1449 1448 1448 1448 1448 1447 1447 1447 1447 1447 1447 1446 1446 1446 1445 1445 1444 1444 1444 1443 1443 1444 1444 1444 1444 1444 1443 1445 1445 1445 1445 1446 1446 1446 1446
1446 1445 1445 1444 1444 1444 1443 1443 1442 1442 1442 1442 1442 1442 1442 1441 1440 1440 1440 1439 1439 1438 1438 1439 1439 1439 1438 1438 1438 1438 1439 1440 1441 1441 1441 1441 1441 1441
1443 1442 1441 1441 1440 1439 1439 1438 1438 1438 1437 1437 1437 1436 1436 1436 1435 1435 1434 1434 1434 1433 1433 1433 1433 1433 1433 1433 1433 1433 1434 1434 1435 1435 1435 1436 1437 1437